Regional Weather Roundup
Issued by NWS

Home | Current Version | Previous Version | Text Only | Print | Product List | Glossary On
Versions: 1 2 3 4 5 6 7 8 9 10 11 12 13 14 15 16 17 18 19 20 21 22 23 24 25 26 27
000
ASUS46 KPQR 250310
RWROR

OREGON REGIONAL WEATHER ROUNDUP
NATIONAL WEATHER SERVICE PORTLAND OR
800 PM PDT WED MAY 24 2017

NOTE: "FAIR" INDICATES FEW OR NO CLOUDS BELOW 12,000 FEET WITH
NO SIGNIFICANT WEATHER AND/OR OBSTRUCTIONS TO VISIBILITY.

ORZ001>013-250400-
NORTHWEST OREGON


CITY           SKY/WX    TMP DP  RH WIND       PRES   REMARKS
ASTORIA        CLOUDY    54  45  71 NW6       29.98F
NEWPORT        CLEAR     52  46  82 N8        30.03S
PORTLAND       PTCLDY    58  42  55 NW15      29.95S
VANCOUVER WA   CLEAR     59  44  57 NW10G20   29.94F
SCAPPOOSE      CLEAR     55  44  66 W7        29.94F
HILLSBORO      CLEAR     55  44  66 NW14      29.95S
AURORA         PTCLDY    59  40  49 VRB7      29.96R
MCMINNVILLE    CLEAR     58  40  51 NW13      29.96S
SALEM          MOCLDY    58  41  53 NW15      29.94R
CORVALLIS      CLEAR     61  43  51 NW6       29.94R
EUGENE         PTCLDY    57  46  66 NE9       29.92F
$$

ORZ021-028-250400-
SOUTHWEST OREGON


CITY           SKY/WX    TMP DP  RH WIND       PRES   REMARKS
NORTH BEND     CLEAR     54  48  82 N25G35    29.96F
BROOKINGS      CLEAR     66  47  50 NW13      29.75R
ROSEBURG       CLEAR     66  41  40 N10       29.89S
SEXTON SUMMIT  CLEAR     49  31  49 N10G25    29.86F
MEDFORD        CLEAR     68  34  28 NW12      29.80S
$$

ORZ014>016-041-250400-
COLUMBIA GORGE


CITY           SKY/WX    TMP DP  RH WIND       PRES   REMARKS
TROUTDALE      CLEAR     60  42  51 N5        29.94S
HOOD RIVER     CLEAR     57  41  54 W5        29.88S
THE DALLES     PTCLDY    63  41  44 W13G25    29.83S
$$

ORZ029>031-041-044-049-050-061>064-502-503-505>511-250400-
EASTERN OREGON


CITY           SKY/WX    TMP DP  RH WIND       PRES   REMARKS
REDMOND        CLEAR     54  30  40 N10G24    29.84R
BEND           CLEAR     52  32  46 N9G16     29.81R
PRINEVILLE     CLEAR     52  34  50 MISG      29.85S
KLAMATH FALLS  CLEAR     61  38  42 NW20      29.78R
HERMISTON      CLOUDY    64  41  42 W12G24    29.76S
PENDLETON      CLOUDY    59  38  45 W14       29.77S
JOHN DAY       CLEAR     55  28  35 NW13G22   29.80R
MEACHAM        MOCLDY    50  25  37 CALM      29.81S
LA GRANDE      PTCLDY    54  28  37 N13       29.78S
BAKER CITY     CLEAR     51  29  42 NW20      29.77R
BURNS          CLEAR     55  22  27 NW16G23   29.76R
ROME             N/A     64  13  13 NW13G24   29.70R
ONTARIO        CLEAR     63  29  27 NW25G32   29.69R
$$




USA.gov is the U.S. government's official web portal to all federal, state and local government web resources and services.